Regional Weather Roundup
Issued by NWS

Home | Current Version | Previous Version | Graphics & Text | Print | Product List | Glossary Off
Versions: 1 2 3 4 5 6 7 8 9 10 11 12 13 14 15 16 17 18 19 20 21 22 23 24 25 26 27 28 29 30 31 32 33 34 35 36 37 38 39 40 41 42 43 44 45 46 47 48 49 50

000
ASUS43 KMKX 200159
RWRWI

WISCONSIN REGIONAL WEATHER ROUNDUP
NATIONAL WEATHER SERVICE MILWAUKEE/SULLIVAN WI
800 PM CST THU JAN 19 2017

NOTE: "FAIR" INDICATES FEW OR NO CLOUDS BELOW 12,000 FEET WITH NO
SIGNIFICANT WEATHER AND/OR OBSTRUCTIONS TO VISIBILITY.

WIZ001-002-006>008-014>016-023>028-200300-
NORTHWEST WISCONSIN

CITY           SKY/WX    TMP DP  RH WIND       PRES   REMARKS
SUPERIOR ARPT    N/A     28  28 100 CALM      29.76S FOG
ASHLAND        CLEAR     35  30  82 S6        29.78S WCI  30
HAYWARD        PTCLDY    34  30  85 SE5       29.77F WCI  30
SIREN          CLOUDY    38  32  77 SE3       29.76F
CUMBERLAND     CLOUDY    34  32  93 SE6       29.76F WCI  29
RICE LAKE      CLOUDY    37  32  84 SE6       29.78S WCI  32
CHETEK         NOT AVBL
LADYSMITH      CLOUDY    35  32  88 E6        29.80S WCI  30
EAU CLAIRE     NOT AVBL
MENOMONIE        N/A    N/A N/A N/A MISG        N/A
NEW RICHMOND   CLOUDY    36  31  83 CALM      29.75S
OSCEOLA        CLOUDY    36  32  86 CALM      29.78F
$$

WIZ003>005-009-010-017-018-200300-
NORTH CENTRAL WISCONSIN

CITY           SKY/WX    TMP DP  RH WIND       PRES   REMARKS
MANITOWISH WTR CLEAR     32  32 100 S5        29.79  WCI  28
ARBOR VITAE    CLEAR     34  32  92 CALM      29.79S
WOODRUFF       CLEAR     34  32  92 CALM      29.79S
RHINELANDER    CLOUDY    32  31  96 CALM      29.80F
EAGLE RIVER    CLEAR     33  29  86 CALM      29.79F
LAND O LAKES   CLEAR     30  29  94 CALM      29.81S
PHILLIPS       CLOUDY    32  30  92 SE5       29.78F WCI  28
TOMAHAWK       FOG       32  31  96 CALM      29.82S VSB 1
MEDFORD        FOG       31  31  99 E5        29.79S VSB 1/2 WCI  26
MERRILL        FOG       32  32 100 CALM        N/A  VSB 3/4
$$

WIZ029-030-035-036-043>047-200300-
CENTRAL WISCONSIN

CITY           SKY/WX    TMP DP  RH WIND       PRES   REMARKS
WAUSAU         FOG       31  31 100 E6        29.79F VSB 1/2 WCI  25
MOSINEE        FOG       30  30 100 E6        29.81F VSB 1/4 WCI  24
MARSHFIELD     PTCLDY    32  30  92 E7        29.76F FOG     WCI  26
STEVENS POINT  CLOUDY    30  30 100 E5        29.82F FOG     WCI  25
WAUPACA        FOG       33  32  94 CALM      29.84S VSB 3/4
WAUTOMA        CLOUDY    32  30  93 E5        29.82F FOG     WCI  27
WISC RAPIDS    PTCLDY    33  32  96 E5        29.80F WCI  29
CAMP DOUGLAS   CLOUDY    34  32  93 E5        29.78S WCI  30
$$

WIZ011>013-019>022-031-037>040-048>050-200300-
NORTHEAST WISCONSIN

CITY           SKY/WX    TMP DP  RH WIND       PRES   REMARKS
ANTIGO         FOG       29  29 100 CALM      29.81F VSB 1/4
SHAWANO        FOG       32  31  96 NE3       29.85F VSB 1/2
OCONTO         NOT AVBL
STURGEON BAY   FOG       30  30 100 SW3       29.87F VSB 1/4
GREEN BAY      FOG       34  34 100 E3        29.86F VSB 1/4
MANITOWOC      NOT AVBL
APPLETON       FOG       30  30 100 E5        29.82F VSB 1/4 WCI  25
CLINTONVILLE   FOG       32  32 100 E3        29.84S VSB 1/4
OSHKOSH        FOG       32  31  96 CALM      29.82F VSB 1/2
$$

WIZ032>034-041-042-053>061-200300-
SOUTHWEST WISCONSIN

CITY           SKY/WX    TMP DP  RH WIND       PRES   REMARKS
LA CROSSE      LGT RAIN  39  35  86 E5        29.76F
SPARTA         LGT RAIN  35  34  96 E3        29.78F
VIROQUA        CLOUDY    34  34 100 E7        29.75F WCI  28
BOSCOBEL       LGT RAIN  37  35  92 NE5       29.78F FOG     WCI  33
PRAIRIE DU CHI CLOUDY    36  35  96 E5        29.76F FOG     WCI  32
PLATTEVILLE    CLOUDY    35  35 100 E9        29.76F WCI  28
$$

WIZ056-057-062-063-064-067-068-200300-
SOUTH CENTRAL WISCONSIN

CITY           SKY/WX    TMP DP  RH WIND       PRES   REMARKS
REEDSBURG      NOT AVBL
BARABOO/DELLS  DRZL/FOG  34  33  96 CALM      29.80S VSB 1
LONE ROCK      CLOUDY    35  34  96 E6        29.80F FOG     WCI  30
MINERAL POINT  LGT RAIN  36  36 100 E8        29.77F WCI  29
MADISON        LGT RAIN  35  34  96 NE3       29.81F FOG
MIDDLETON      CLOUDY    36  36 100 NE5       29.80F WCI  32
WATERTOWN      LGT RAIN  35  35 100 E5        29.81F WCI  31
MONROE         LGT RAIN  34  34 100 CALM      29.78F VSB 1/4
JANESVILLE     LGT RAIN  37  37 100 E8        29.79S FOG     WCI  31
$$

WIZ051-052-058>065-066-070>072-200300-
SOUTHEAST WISCONSIN

CITY           SKY/WX    TMP DP  RH WIND       PRES   REMARKS
MILWAUKEE      LGT RAIN  37  36  96 E6        29.83F VSB 1/8 WCI  32
WAUKESHA       LGT RAIN  34  34 100 E5        29.82F WCI  30
MILWAUKEE/TIMM LGT RAIN  36  34  93 CALM      29.83F VSB 1/2
RACINE         LGT RAIN  37  35  92 SE6       29.85S FOG     WCI  32
KENOSHA        RAIN      37  36  96 E9        29.84R FOG     WCI  30
FOND DU LAC    CLOUDY    33  30  88 NE3       29.82F FOG
SHEBOYGAN      FOG       32  31  96 CALM      29.85F VSB 1/4
WEST BEND      DRZL/FOG  32  32 100 E5        29.83F VSB 3/4 WCI  27
JUNEAU         FOG       33  33  98 CALM      29.82F VSB 1
$$

LSZ147-162-200300-
LAKE SUPERIOR

STATION/POSITION TIME  TEMP    WIND        PRES    WAVE
                       AIR SEA DIR/SP/G            HT/PER
                 (UTC) (F)     (DEG/KT/KT) (MB)    (FT/S)
DEVILS ISLAND    0100   35      80/  4/  4 1008.6F
PORT WING        0040   29     170/  3/  4 1008.1S
SAXON HARBOR     0040   33     200/  3/  3 1008.1S
$$

LMZ867-665-643>646-200300-
LAKE MICHIGAN

STATION/POSITION TIME  TEMP    WIND        PRES    WAVE
                       AIR SEA DIR/SP/G            HT/PER
                 (UTC) (F)     (DEG/KT/KT) (MB)    (FT/S)
NORTHPORT PIER   0040   33      CALM  /  5 1012.2F
SISTER BAY       0150   32     190/  7/  8   N/A
ALGOMA LAKESHORE 2339          220/  8/ 10   N/A
KEWAUNEE LAKESHO 0130   32     220/  3/  7 1011.3F
SHEBOYGAN LAKESH 0100   34     150/  2/  2 1011.7F
PORT WASHINGTON  0030   35     190/  5/  6 1012.9S
MILWAUKEE LAKESH 0130   35      10/  3/  3   N/A
KENOSHA   LAKESH 0100   35      90/  7/  7 1010.5
$$

TC  - TEMPERATURE IN CELSIUS
VSB - VISIBILITY IN STATUTE MILES
WCI - WIND CHILL INDEX
HX  - HEAT INDEX





USA.gov is the U.S. government's official web portal to all federal, state and local government web resources and services.